Location: Gangadevap?du
(17.2282°N, 80.6371°E)
Time: 05:19:30
(UTC+00:00)

Daily predictions for brighter satellites

Satellite Brightness Start Highest point End
(mag) Time Altitude Azimuth Time Altitude Azimuth Time Altitude Azimuth
BlueWalker 3 3.6 00:06:55 11° W 00:08:57 17° WSW 00:11:19 10° SSW
SWIFT 1.7 00:07:44 12° WNW 00:10:56 88° S 00:14:22 10° ESE
Atlas Centaur 2 3.2 00:05:14 10° SW 00:12:50 62° SSE 00:19:08 10° ENE
ATLAS CENTAUR Rocket 2.3 00:11:01 10° W 00:14:51 55° NNW 00:21:39 10° ENE
Cosmos 1943 3.4 00:12:00 10° SW 00:17:24 49° WNW 00:22:47 10° N
Cosmos 1812 1.9 00:16:13 10° N 00:19:05 87° W 00:21:57 10° S
Cosmos 2278 Rocket 3.4 00:15:28 10° NW 00:19:41 22° WSW 00:23:55 10° SSW
Cosmos 1603 4.2 00:14:24 10° S 00:20:05 70° ESE 00:25:47 10° NNE
